Location: Roland
(31.1349°N, 85.4372°W)
Time: 18:20:42
(UTC+00:00)

SR - Pass Details

Date: 19 April 2021
Orbit: 573 x 882 km, 66.7° (Epoch: 12 May)

Event Time Altitude Azimuth Distance (km) Brightness Sun altitude
Rises 12:14:44 0° 190° (S) 3,190 ? 13.0°
Reaches altitude 10° 12:17:05 10° 185° (S) 2,315 ? 13.5°
Maximum altitude 12:22:16 52° 110° (ESE) 1,015 ? 14.6°
Drops below altitude 10° 12:27:51 10° 36° (NE) 2,491 ? 15.8°
Sets 12:30:27 0° 32° (NNE) 3,455 ? 16.4°
